Custer, SD

5:59 AM MDT on September 26, 2017 (GMT -0600)
Custer County

Weather History for KCUT - May, 2013

Change the Weather History Date:

Tuesday, May 7, 2013

  Actual Average Record
Temperature  
Mean Temperature 49 °F 46 °F  
Max Temperature 65 °F 58 °F 82 °F (1966)
Min Temperature 32 °F 33 °F 19 °F (1951)
Degree Days  
Heating Degree Days 16 19  
Month to date heating degree days 183 141  
Since 1 July heating degree days 7787 7791  
Cooling Degree Days 0 0  
Month to date cooling degree days 0 0  
Year to date cooling degree days 0 0  
Moisture  
Dew Point 31 °F    
Average Humidity 54    
Maximum Humidity 82    
Minimum Humidity 25    
Precipitation  
Precipitation T in 0.09 in 1.12 in (1981)
Month to date precipitation T 0.67  
Year to date precipitation 5.30 4.66  
Sea Level Pressure  
Sea Level Pressure 29.87 in    
Wind  
Wind Speed 4 mph (North)    
Max Wind Speed 16 mph    
Max Gust Speed 23 mph    
Visibility 10 miles    
Events Rain    
T = Trace of Precipitation, MM = Missing Value Source: NWS Daily Summary

Daily Weather History Graph

Daily Weather History Graph

Search for Another Location

Airport or City:

Trip Planner

Search our weather history database for the weather conditions in past years. The results will help you decide how hot, cold, wet, or windy it might be!

Date:

Astronomy

May. 07, 2013 Rise Set
Actual Time 5:38 AM MDT 8:04 PM MDT
Civil Twilight 5:06 AM MDT 8:36 PM MDT
Nautical Twilight 4:25 AM MDT 9:17 PM MDT
Astronomical Twilight 3:40 AM MDT 10:02 PM MDT
Moon 4:17 AM MDT (5/7) 6:03 PM MDT (5/7)
Length of Visible Light 15h 30m
Length of Day
14h 26m
Waning Crescent, 5% of the Moon is Illuminated
May 7
Waning Crescent
May 9
New
May 17
First Quarter
May 24
Full
May 31
Last Quarter

Hourly Weather History & Observations

Time (MDT) Temp. Windchill Dew Point Humidity Pressure Visibility Wind Dir Wind Speed Gust Speed Precip Events Conditions
12:53 AM 39.0 °F 36.8 °F 24.1 °F 55% 29.96 in 10.0 mi NNE 3.5 mph - N/A   Clear
1:53 AM 36.0 °F 32.1 °F 24.1 °F 62% 29.94 in 10.0 mi NW 4.6 mph - N/A   Clear
2:53 AM 35.1 °F 32.2 °F 24.1 °F 64% 29.93 in 10.0 mi NNW 3.5 mph - N/A   Clear
3:53 AM 35.1 °F 32.2 °F 23.0 °F 61% 29.92 in 10.0 mi NW 3.5 mph - N/A   Clear
4:53 AM 35.1 °F 31.0 °F 24.1 °F 64% 29.91 in 10.0 mi NW 4.6 mph - N/A   Clear
5:53 AM 37.9 °F 34.4 °F 28.0 °F 68% 29.90 in 10.0 mi NW 4.6 mph - N/A   Clear
6:53 AM 37.9 °F - 30.0 °F 73% 29.91 in 10.0 mi Calm Calm - N/A   Clear
7:53 AM 51.1 °F - 35.1 °F 54% 29.87 in 10.0 mi Calm Calm - N/A   Clear
8:53 AM 59.0 °F - 30.9 °F 35% 29.85 in 10.0 mi SW 5.8 mph - N/A   Clear
9:53 AM 61.0 °F - 30.9 °F 32% 29.85 in 10.0 mi Variable 6.9 mph - N/A   Mostly Cloudy
10:53 AM 60.1 °F - 27.0 °F 28% 29.85 in 10.0 mi Variable 4.6 mph - N/A   Overcast
11:53 AM 62.1 °F - 30.9 °F 31% 29.84 in 10.0 mi Variable 5.8 mph - N/A   Mostly Cloudy
12:53 PM 60.1 °F - 30.9 °F 33% 29.86 in 10.0 mi SSE 5.8 mph - N/A   Overcast
1:53 PM 54.0 °F - 37.0 °F 53% 29.91 in 10.0 mi NE 11.5 mph - 0.00 in Rain Light Rain
2:53 PM 57.0 °F - 36.0 °F 45% 29.89 in 10.0 mi North 5.8 mph - 0.00 in   Overcast
3:53 PM 62.1 °F - 34.0 °F 35% 29.84 in 10.0 mi ENE 8.1 mph - N/A   Clear
4:53 PM 64.0 °F - 30.9 °F 29% 29.81 in 10.0 mi Variable 5.8 mph 23.0 mph N/A   Scattered Clouds
5:53 PM 63.0 °F - 27.0 °F 26% 29.81 in 10.0 mi Calm Calm - N/A   Clear
6:53 PM 63.0 °F - 28.0 °F 27% 29.81 in 10.0 mi Calm Calm - N/A   Mostly Cloudy
7:53 PM 57.9 °F - 34.0 °F 41% 29.80 in 10.0 mi ESE 8.1 mph - N/A   Overcast
8:53 PM 48.9 °F - 39.0 °F 69% 29.84 in 10.0 mi NE 4.6 mph - N/A   Clear
9:53 PM 46.0 °F - 39.0 °F 76% 29.85 in 10.0 mi Calm Calm - N/A   Clear
10:53 PM 42.1 °F 40.2 °F 37.9 °F 85% 29.87 in 10.0 mi NW 3.5 mph - N/A   Partly Cloudy
11:53 PM 42.1 °F 39.2 °F 37.0 °F 82% 29.86 in 10.0 mi NW 4.6 mph - N/A   Clear